Theta_e
334 329 329 327 324 320 316 315 301 307 305 299 301 303 302 310 311 310 309 311 308 314 317 318 319 318 314 314 317 324 328 322 322 314 317 338 348 344 349 347 346 347 346 349 350 350 351 353 353 353 353 354 353 354 354 354 354 355 354 354 355 355 355 355 355 355 355 354 354 354 354 353 353 353 353 353 352 352 352 352 351 352 351 351 352 352 351 351 350 350 350 350 349 349 348 347 347
324 325 325 324 320 316 310 313 303 301 302 299 301 304 305 309 309 308 308 310 311 314 317 317 318 318 317 316 318 326 330 333 336 336 342 346 348 346 350 349 347 345 346 347 348 349 350 351 353 352 352 352 353 353 353 353 354 354 355 355 355 355 355 355 355 355 354 354 354 353 353 354 354 353 353 352 352 351 353 351 351 351 351 352 352 351 351 351 350 350 350 350 350 350 349 348 345
323 323 321 320 317 314 312 311 299 299 297 295 300 304 309 306 307 309 311 312 312 313 314 314 315 315 316 318 315 320 325 337 337 339 338 346 339 343 349 350 348 345 343 345 347 348 349 351 352 352 352 352 352 352 353 353 354 355 355 355 354 354 355 355 355 354 354 354 354 354 353 353 353 353 352 351 351 351 353 352 350 351 350 350 350 350 351 350 349 349 350 349 349 348 348 347 346
325 324 319 318 309 314 306 305 302 299 297 298 299 306 307 307 308 310 313 314 312 313 313 312 310 321 318 313 324 328 333 336 340 339 337 341 340 346 350 350 349 344 344 345 346 348 348 351 352 352 351 351 351 352 352 353 354 354 354 354 354 355 355 354 354 354 354 354 353 353 353 353 352 352 351 352 352 352 351 351 350 349 349 350 350 350 351 350 350 350 350 349 348 346 345 345 344
320 320 318 314 310 305 305 303 302 301 297 300 298 305 307 309 309 311 313 313 313 313 312 312 311 316 319 317 318 321 331 341 342 343 341 344 345 348 351 349 347 345 344 345 346 348 348 352 351 351 351 351 351 351 352 352 353 354 353 353 353 354 354 354 354 354 354 354 353 353 352 352 351 351 351 352 351 351 351 350 350 349 350 351 350 350 350 349 349 349 349 348 346 344 344 346 346
319 318 319 315 307 312 307 300 299 299 302 305 302 305 308 310 310 311 312 313 313 313 313 312 311 312 313 329 329 329 334 332 340 343 346 344 350 352 352 352 347 345 346 347 347 347 348 351 351 351 351 351 351 351 352 353 353 353 353 353 353 354 354 354 354 354 353 353 353 352 352 352 351 351 350 350 350 349 349 349 349 348 348 349 350 350 350 349 349 348 347 346 344 344 346 348 348
316 316 314 313 310 310 300 299 299 300 303 307 305 306 308 310 311 312 311 312 313 313 314 313 315 315 311 330 335 335 341 340 336 344 349 348 352 354 354 350 346 346 347 345 345 347 347 350 350 350 350 351 351 351 352 353 353 353 353 354 354 354 354 354 354 353 353 353 353 353 352 352 351 349 348 347 347 347 347 347 348 348 347 347 347 347 349 350 349 347 346 345 344 345 346 347 349
320 310 310 305 303 305 300 300 300 302 303 307 308 307 309 310 311 311 310 310 309 309 312 315 315 312 313 318 323 332 336 337 345 351 350 350 353 355 353 349 346 346 346 345 345 347 351 350 350 350 350 350 351 352 352 353 353 353 353 354 354 354 354 354 354 353 353 353 352 352 351 350 350 349 348 347 346 345 345 346 346 347 346 345 346 347 350 349 348 346 345 344 343 345 347 348 348
315 311 312 305 300 303 300 299 301 306 306 308 308 310 314 311 311 310 309 311 311 312 311 312 313 310 312 318 327 334 339 342 350 351 350 351 354 356 353 349 346 345 345 346 346 347 347 350 350 350 350 350 351 352 352 353 353 353 354 354 354 354 353 354 353 353 352 352 352 351 350 349 348 348 347 347 347 347 346 345 345 346 346 345 345 346 347 346 346 346 344 343 344 346 345 346 347
311 310 303 303 302 297 299 300 299 302 304 308 308 309 311 311 311 311 310 309 311 311 312 313 313 309 313 323 329 333 335 349 350 349 350 352 354 357 356 351 349 346 346 344 344 345 345 351 349 350 350 350 351 352 352 353 353 354 354 354 354 354 353 353 353 352 352 352 351 350 349 349 348 348 348 347 346 345 345 345 344 344 344 344 344 344 344 344 344 345 344 343 343 345 348 346 347
306 310 309 301 298 296 296 298 300 303 305 308 309 311 311 312 311 310 311 311 313 311 311 313 310 310 310 311 330 344 347 350 349 346 350 353 356 356 351 352 349 347 343 343 344 344 343 345 350 350 350 351 351 352 353 353 354 354 354 354 354 354 354 353 353 352 352 351 351 351 350 349 348 347 346 345 344 344 344 344 344 342 342 342 342 342 342 342 342 344 344 343 343 345 345 347 345
303 304 305 297 297 297 298 298 300 303 306 307 307 310 312 312 311 309 310 310 310 310 309 312 308 312 309 312 328 342 349 348 349 350 352 355 353 353 350 349 348 345 344 344 344 342 342 343 346 350 351 351 352 353 353 354 354 354 354 354 353 354 353 353 352 352 352 352 351 350 349 348 347 345 344 344 344 343 342 342 342 342 341 342 342 341 341 341 341 342 343 344 344 343 346 345 346
304 305 302 299 298 299 300 299 300 303 303 305 306 310 313 311 310 310 310 310 310 308 308 312 313 312 307 311 336 342 343 348 350 351 354 352 351 351 351 348 347 345 345 344 342 342 342 343 343 344 348 351 352 353 353 354 354 354 354 354 353 353 353 352 352 352 352 351 350 349 348 347 347 346 346 345 345 344 342 341 340 340 341 341 341 340 340 341 341 342 342 344 343 343 344 345 345
305 305 303 298 302 300 299 299 301 299 301 305 308 311 312 310 311 313 312 308 308 308 311 314 312 312 311 335 334 336 341 347 349 351 352 352 351 350 351 349 347 345 344 343 342 342 342 343 343 343 347 348 350 352 353 354 353 353 354 353 353 353 353 352 352 352 351 350 349 348 348 348 347 346 345 345 344 343 343 342 340 339 338 339 340 340 340 341 341 341 343 342 342 343 342 343 345
305 308 303 300 299 299 301 298 299 300 300 306 309 309 310 312 312 311 310 307 308 312 314 315 314 310 307 333 331 334 343 347 350 351 351 350 350 349 350 348 348 345 344 344 343 342 341 342 342 341 343 345 348 349 351 351 353 353 353 353 353 352 352 352 352 351 351 350 349 349 348 348 347 347 346 345 344 344 344 343 342 342 341 339 339 338 340 340 340 342 343 343 341 342 343 342 344
309 306 303 298 297 297 299 300 302 301 301 306 309 310 309 309 311 308 310 310 309 313 316 311 316 311 313 311 324 340 345 348 349 351 348 346 347 346 347 346 345 344 344 344 343 342 342 341 340 340 341 343 346 348 348 350 352 352 353 352 353 352 352 351 351 351 350 349 349 349 348 348 347 346 347 344 345 345 344 344 344 343 340 340 339 340 340 341 340 342 343 343 341 342 344 344 344
311 307 299 299 296 298 299 299 301 298 304 307 309 309 306 307 311 311 313 312 309 310 313 320 318 319 316 338 341 346 348 349 349 347 346 344 343 342 343 343 342 342 343 342 343 342 342 340 340 341 341 342 343 344 347 349 350 352 352 352 352 352 351 351 351 351 350 350 350 349 349 346 346 345 344 342 345 345 344 344 344 343 343 341 340 339 340 341 342 342 342 341 343 342 343 344 345
309 301 299 296 299 298 302 301 303 306 303 306 308 309 308 305 309 310 311 309 311 313 313 317 322 321 326 341 344 347 347 347 346 343 342 341 342 340 339 339 340 339 340 341 342 343 342 342 343 342 342 343 343 345 344 348 348 350 351 351 351 351 351 351 350 350 353 350 350 349 348 349 348 345 347 347 345 343 343 343 343 343 343 343 342 340 341 341 340 342 340 339 340 341 343 341 343
304 302 300 296 300 302 306 306 306 305 305 307 308 309 308 307 308 310 308 308 310 310 313 315 317 320 336 343 345 344 345 346 345 344 341 340 339 339 339 338 339 340 339 340 342 345 344 344 344 343 343 345 345 344 344 345 345 348 349 349 349 351 352 351 349 350 350 350 349 348 350 350 348 348 350 347 346 343 343 343 344 343 343 343 343 342 342 341 342 341 340 339 339 341 338 337 340
307 303 298 299 304 305 307 308 307 308 308 307 308 309 307 308 308 312 307 307 309 309 312 314 314 328 332 334 340 343 344 344 345 343 341 340 339 340 340 339 340 341 340 341 342 346 345 344 345 345 346 346 345 343 343 342 344 344 345 347 348 350 350 350 349 350 350 349 350 349 350 350 351 351 351 352 351 345 343 345 344 343 343 343 344 342 342 343 342 343 341 341 340 335 332 335 338
307 303 300 302 305 303 305 307 308 309 310 308 308 308 306 308 309 309 308 305 305 307 312 316 317 322 334 339 342 343 344 342 343 343 342 340 342 342 341 341 340 342 343 343 344 346 347 347 347 347 347 346 345 344 341 340 343 342 341 344 346 348 349 349 348 348 348 349 347 348 347 348 348 348 349 348 346 346 344 344 344 343 343 343 344 342 341 340 341 336 334 339 333 331 330 331 333
307 303 305 305 306 303 307 308 308 308 309 308 307 305 306 310 309 308 308 304 304 308 311 315 318 324 334 339 342 343 342 341 342 341 341 342 342 342 343 343 346 345 345 342 343 345 347 348 348 347 348 347 347 343 341 342 343 340 340 341 343 346 348 347 347 347 346 348 349 347 351 347 351 345 342 345 343 345 345 343 342 343 344 343 344 342 343 341 335 335 329 329 329 330 329 330 331
300 305 306 307 306 304 307 308 308 309 308 307 306 307 308 307 307 309 308 306 308 312 314 319 322 324 338 344 342 342 341 341 341 341 341 337 340 343 344 344 344 342 343 343 345 345 348 348 349 347 347 347 348 346 344 342 340 341 341 341 341 343 344 344 344 343 346 346 353 348 347 345 344 349 341 345 345 344 344 346 344 345 345 344 344 340 342 343 338 337 333 331 330 329 328 331 335
304 301 306 306 307 305 307 307 309 308 308 307 309 309 306 306 303 309 308 310 311 313 314 320 324 325 332 333 339 340 341 341 341 334 327 329 331 340 345 344 344 344 343 344 344 346 347 347 349 347 346 346 346 347 345 341 341 340 341 341 341 342 341 342 342 344 346 345 348 352 349 345 344 348 344 349 353 349 347 345 345 344 343 343 345 339 341 344 343 342 345 338 335 334 335 337 332
302 302 306 306 307 307 307 307 307 309 308 309 308 305 305 306 305 307 307 310 311 312 314 318 324 325 335 334 336 338 340 341 333 330 331 332 334 332 339 345 345 344 342 343 345 346 347 347 349 348 347 347 346 346 344 341 341 341 343 341 342 346 341 341 345 344 344 344 348 350 347 350 346 350 346 346 346 346 349 349 347 346 346 348 346 346 346 348 347 344 343 340 340 339 339 338 339
304 304 306 306 306 307 307 307 307 307 308 308 306 305 306 307 309 305 308 310 312 313 313 315 322 322 325 327 332 334 341 338 333 331 332 337 337 334 334 340 344 343 343 345 345 346 347 349 348 347 347 346 346 345 345 341 344 341 343 341 348 342 349 342 353 346 349 343 345 349 345 348 352 351 346 346 344 345 349 346 347 347 345 345 346 344 349 352 351 350 345 342 339 339 338 338 343
306 305 305 305 306 306 308 306 307 308 307 308 305 305 305 308 306 302 309 311 313 312 312 319 321 321 325 328 334 339 339 335 333 334 334 334 333 332 331 342 344 344 345 344 344 346 347 348 346 348 349 348 346 344 344 344 344 342 341 341 350 340 351 353 346 347 347 347 344 350 346 349 352 349 349 346 347 346 347 347 346 349 346 347 349 352 352 347 349 347 345 345 346 346 345 342 340
305 305 305 304 305 306 307 307 307 307 306 308 307 304 306 307 306 303 307 310 312 310 311 319 320 321 329 334 336 340 340 338 336 336 332 330 330 331 332 334 342 344 344 344 345 346 346 347 347 348 348 347 346 344 346 342 342 343 341 340 346 341 349 350 344 345 345 345 345 347 347 350 351 350 348 348 344 345 344 344 345 346 349 349 349 350 349 352 351 349 349 349 350 349 344 346 343
304 304 300 302 304 302 305 304 306 307 305 308 308 304 302 303 302 306 308 310 312 310 311 318 318 321 328 333 335 338 338 337 337 334 334 334 336 337 334 339 342 344 345 346 345 346 345 346 346 347 346 347 346 347 345 343 343 340 338 343 342 341 347 348 346 345 348 347 347 346 349 349 350 349 350 348 345 345 343 343 342 343 344 350 354 351 352 351 348 349 349 349 347 347 345 345 342
305 303 301 300 301 300 304 306 306 306 306 308 306 294 297 301 304 307 309 309 310 313 314 316 316 322 323 334 335 336 339 337 337 336 338 336 337 335 335 341 345 343 342 344 345 345 346 347 346 346 346 346 346 349 343 346 345 341 343 347 343 350 349 347 346 346 347 347 346 348 349 349 348 350 349 349 348 344 343 342 342 341 342 347 352 354 351 351 347 346 347 346 346 345 342 341 340
299 301 302 297 296 296 304 304 305 303 307 306 306 295 297 302 305 307 309 309 312 315 315 315 317 321 322 331 334 337 339 337 336 336 337 340 339 341 343 345 344 343 342 343 344 345 345 346 346 345 346 344 346 348 344 343 349 342 344 345 346 344 348 344 349 351 352 347 346 347 349 350 349 349 349 347 345 342 341 342 341 340 342 347 352 350 350 347 347 344 347 344 346 344 342 340 339
300 296 293 297 295 297 302 305 304 300 305 307 304 296 298 302 305 307 309 309 312 315 316 315 319 322 328 328 331 335 337 338 339 339 340 341 343 341 340 340 344 343 343 344 344 344 344 345 346 344 345 344 346 346 347 345 349 350 350 348 345 349 348 346 348 352 354 351 351 348 349 351 350 349 349 350 350 343 342 339 343 346 350 353 349 350 348 345 345 348 347 345 344 340 340 338 339
298 295 294 294 296 296 299 303 304 304 304 305 303 297 300 301 305 308 309 309 310 315 315 315 318 323 326 323 324 329 335 336 339 338 338 341 342 341 340 339 343 345 344 344 343 343 343 345 345 344 344 344 344 344 347 346 348 352 351 347 345 349 347 348 347 347 349 352 350 350 351 351 350 349 349 349 351 350 348 350 350 351 351 348 354 350 346 346 345 346 347 344 343 340 338 337 338
293 297 294 296 295 296 295 302 304 304 303 300 303 300 300 303 305 307 311 309 308 313 316 316 320 319 322 321 321 320 321 324 325 326 331 337 341 341 341 342 345 345 345 345 345 343 343 343 344 343 345 344 345 343 348 343 348 351 349 346 343 337 334 336 338 338 341 345 351 350 352 351 349 350 352 352 356 351 351 345 346 349 349 353 351 351 345 347 348 348 343 344 343 341 338 337 337
292 294 293 294 297 298 297 296 302 304 303 301 301 300 300 302 305 306 308 309 308 310 315 324 319 320 318 321 317 319 319 322 326 327 332 332 339 341 340 342 344 345 345 345 344 344 343 343 343 343 343 343 344 345 346 345 349 346 338 336 336 337 337 339 340 340 339 340 341 341 345 351 352 352 352 351 352 350 347 351 352 351 351 352 352 346 345 346 349 346 343 342 344 342 340 339 338
295 296 295 295 294 295 296 300 304 304 300 299 300 298 300 302 303 305 307 309 308 309 321 322 320 318 320 319 321 321 323 322 325 326 331 334 337 340 340 342 344 345 345 345 343 344 343 343 343 342 341 343 344 344 342 341 341 335 336 339 337 335 338 337 339 340 342 341 343 343 343 346 350 354 349 353 352 355 354 355 352 352 349 352 351 345 344 343 344 342 342 341 340 341 341 340 339
299 298 297 296 296 297 300 301 303 305 301 299 300 300 301 302 303 305 306 309 308 322 321 317 319 318 318 319 320 321 320 321 326 330 328 330 333 335 342 342 343 345 345 344 343 343 343 342 340 339 342 343 341 339 339 339 335 333 335 335 334 336 338 340 339 340 341 342 342 342 342 347 350 349 349 353 353 355 354 358 354 350 349 350 351 345 347 345 345 344 342 342 340 337 338 340 341
298 297 297 296 297 295 300 300 303 305 301 299 301 300 301 302 303 305 307 307 308 319 318 317 316 317 317 317 318 319 322 321 325 326 328 330 333 334 338 341 342 341 342 343 342 343 342 342 339 340 342 344 344 344 340 337 338 337 334 333 335 335 336 337 338 339 339 340 342 341 343 347 347 347 348 350 357 353 354 353 355 352 352 351 349 347 346 343 345 344 343 340 342 338 336 340 342
297 296 297 296 296 299 301 302 303 304 302 299 301 299 300 302 303 305 307 310 317 320 320 318 317 316 318 319 321 321 323 324 324 326 327 329 329 333 337 340 341 342 342 342 343 342 341 339 339 338 337 338 339 339 338 335 336 338 336 335 337 337 339 341 340 340 340 338 339 343 344 344 343 343 347 349 353 353 351 351 351 349 347 347 345 344 345 344 344 343 342 340 338 340 337 341 341
296 295 294 294 298 296 293 300 302 303 302 299 301 298 300 303 305 305 308 314 318 322 321 321 320 319 319 322 322 322 323 323 323 325 328 331 331 330 335 339 340 341 340 341 342 341 341 339 337 337 337 339 336 336 337 338 337 338 339 339 339 340 337 337 338 340 338 337 338 341 346 343 344 340 342 341 349 352 353 349 348 349 349 347 347 344 343 342 344 346 343 342 341 335 334 336 342
296 296 296 296 297 298 297 299 301 303 303 303 301 298 298 300 301 302 308 321 320 318 321 321 321 323 323 323 323 323 322 323 322 325 327 329 327 331 336 338 341 340 339 340 341 341 341 338 337 338 338 336 335 336 338 337 337 337 337 337 338 338 338 337 335 335 335 337 336 337 340 344 343 343 345 345 345 349 347 348 348 348 347 347 345 342 340 340 340 340 342 342 340 337 333 335 337
294 297 297 298 300 299 299 300 300 297 297 300 299 292 293 299 300 301 306 317 316 320 317 318 320 322 322 322 323 324 325 325 323 324 325 328 329 333 336 338 339 339 339 341 342 342 341 339 338 338 336 336 334 337 340 340 339 338 336 334 333 334 332 332 332 334 335 338 337 338 339 341 344 344 346 347 346 345 347 346 346 343 344 345 345 343 342 341 341 340 340 339 339 338 336 333 333
293 294 300 300 300 300 300 299 298 293 291 297 301 291 289 298 298 300 303 314 315 318 318 318 321 321 321 323 324 325 326 324 324 325 327 329 332 333 335 337 338 338 340 342 341 341 340 340 339 337 335 335 337 338 339 339 337 338 338 337 337 335 335 336 337 337 338 338 339 339 340 342 341 347 346 347 346 341 342 343 343 342 340 342 345 342 341 341 339 339 339 337 338 338 337 332 332
292 299 300 300 299 299 299 299 298 296 300 301 300 297 291 292 297 302 303 317 314 315 317 317 320 321 321 322 325 325 326 327 326 325 326 330 332 333 334 337 337 338 340 341 341 341 341 340 338 337 336 336 339 340 339 338 336 337 337 337 337 338 336 334 336 337 339 338 340 336 339 338 340 342 341 339 339 338 338 339 338 339 339 336 336 337 338 339 338 339 340 341 341 340 337 334 332
296 300 301 299 300 300 300 299 297 298 297 292 296 299 292 291 299 303 303 307 312 313 317 319 320 321 322 322 324 326 326 327 328 326 326 331 332 334 335 337 338 340 340 339 340 339 340 339 337 337 336 337 338 338 337 337 338 338 339 337 336 337 337 336 336 332 333 339 335 337 337 337 340 340 339 338 337 335 335 335 336 336 335 336 333 332 334 335 337 337 337 337 337 337 337 336 334
299 302 302 302 302 300 300 298 297 297 294 289 294 297 290 290 297 300 301 302 309 311 316 318 320 323 322 322 325 327 328 330 331 330 331 333 334 335 337 338 339 339 339 341 340 339 338 337 337 337 337 337 336 336 337 337 337 335 336 335 335 336 337 336 336 336 336 339 337 339 340 338 337 336 337 335 334 331 332 334 333 333 334 333 336 333 334 335 335 335 336 335 335 335 336 336 333
302 301 300 299 299 298 299 298 297 295 288 291 296 297 294 288 294 297 298 306 312 311 315 319 321 323 324 325 326 327 327 328 329 331 331 333 332 331 329 327 332 335 337 337 337 338 337 337 338 337 336 336 337 337 336 334 333 333 333 336 335 332 334 335 334 334 339 338 338 336 336 337 336 335 337 336 331 330 331 333 332 331 332 332 331 330 330 331 332 332 333 334 334 334 333 333 333
300 298 297 296 294 297 295 295 297 289 286 293 296 297 296 287 293 298 303 307 314 313 311 316 319 322 323 324 326 325 326 326 329 330 329 328 328 328 329 327 329 333 333 335 333 335 336 335 336 335 335 336 338 337 336 334 334 335 336 337 335 334 335 333 333 334 337 336 336 333 336 338 335 335 333 333 331 329 331 330 329 329 329 329 328 329 330 330 330 331 331 332 332 334 334 333 333
298 297 296 291 288 289 285 290 286 287 286 293 297 298 294 292 297 301 302 305 312 317 315 317 318 322 324 325 326 326 326 326 329 329 328 326 326 326 326 327 330 330 332 332 331 330 332 334 336 334 334 335 335 336 336 337 337 337 335 333 334 337 332 334 334 335 331 330 330 331 332 336 336 330 331 330 327 328 327 327 327 326 326 327 327 327 327 328 329 329 330 331 331 331 331 331 330
295 294 293 289 285 284 282 286 288 289 292 297 296 299 293 297 299 303 303 307 308 315 318 318 318 319 320 325 326 327 328 329 330 328 327 326 327 326 327 326 328 330 331 329 329 329 330 334 335 334 333 334 335 334 335 336 335 336 337 334 334 333 331 331 330 329 330 330 331 330 329 329 333 332 328 326 325 324 325 325 325 325 324 325 325 325 325 326 327 326 326 327 328 329 330 329 329
295 298 294 292 291 286 281 285 283 285 288 293 298 293 291 292 296 305 305 308 311 311 314 317 320 319 324 325 326 327 327 329 328 327 326 326 327 325 325 327 329 326 324 329 330 330 332 333 333 332 331 333 334 334 333 332 331 332 333 333 331 331 329 327 328 328 328 329 329 328 327 328 326 325 324 324 324 324 324 324 325 324 323 324 324 323 324 324 325 324 325 326 326 327 326 325 325
296 297 298 294 292 296 287 289 289 289 289 289 292 291 297 297 308 308 308 308 310 312 317 316 317 319 324 324 325 325 327 327 326 326 327 325 328 325 324 328 327 324 326 329 331 333 332 332 332 332 331 332 331 330 330 330 330 330 330 329 329 329 328 328 327 327 327 327 328 330 328 326 324 323 322 322 323 324 324 323 323 325 324 323 322 322 322 322 322 323 324 323 323 325 322 322 322
294 295 291 294 301 297 291 290 295 292 290 287 293 294 298 307 307 308 307 307 307 309 315 314 314 316 321 323 325 325 325 325 326 325 324 324 327 324 326 326 327 327 328 328 331 333 333 332 331 330 330 330 330 329 329 329 328 327 326 327 328 328 327 325 325 326 326 327 329 326 324 323 322 322 322 322 323 324 326 324 324 323 322 321 322 322 322 323 323 324 322 322 322 322 321 320 321
296 290 294 301 302 300 294 286 289 288 285 286 293 290 292 296 292 308 305 305 305 307 309 316 319 320 319 321 323 322 323 324 323 324 324 325 325 326 328 328 327 326 330 330 330 333 333 332 331 329 328 327 328 327 327 327 326 325 325 325 326 326 325 325 326 326 327 326 325 324 323 321 321 321 321 322 323 323 324 323 323 322 322 323 322 322 321 321 322 322 321 322 321 321 320 320 321
297 294 302 293 288 288 294 291 284 283 283 286 290 293 293 295 296 302 302 304 305 306 308 312 316 317 319 320 321 321 321 321 321 322 324 324 327 329 324 325 325 327 330 330 331 332 332 331 331 329 327 327 326 326 326 326 325 324 324 324 324 324 325 325 325 325 325 322 321 321 320 321 322 322 323 323 323 322 323 322 321 320 321 320 321 320 320 320 320 320 320 319 320 319 319 319 319
301 302 297 300 296 292 290 291 292 291 285 285 287 292 289 297 298 303 303 305 306 306 308 309 312 315 319 320 319 319 319 320 321 322 325 328 326 324 324 324 325 328 330 330 331 331 330 329 328 328 327 326 326 325 325 324 324 324 324 324 325 324 323 323 323 323 322 321 320 320 319 319 319 320 320 320 319 319 319 319 319 319 319 320 319 319 319 319 319 318 318 318 318 318 317 317 317
293 295 293 295 296 299 296 297 292 289 286 286 286 286 292 299 303 304 304 307 308 308 308 311 313 318 319 320 321 319 319 321 324 324 326 323 321 325 325 327 327 329 328 329 330 329 328 328 327 326 325 325 324 324 323 323 323 323 324 323 322 322 322 322 321 321 320 319 320 319 319 318 317 318 319 318 317 317 317 318 317 317 317 317 317 317 318 317 317 317 317 318 317 317 316 316 316
295 294 293 294 291 290 287 287 296 294 291 287 286 285 295 305 307 307 307 309 309 309 309 310 311 313 320 321 322 322 322 325 327 328 324 324 324 325 329 327 329 328 327 327 327 327 327 326 325 325 324 323 322 321 322 322 322 322 321 321 320 321 321 320 320 319 318 317 317 319 319 316 315 316 317 315 315 317 317 317 316 316 316 316 315 315 315 316 315 316 316 317 317 316 316 315 316
Wind_Speed
12 12 9 10 9 10 11 7 9 4 6 11 11 11 10 10 11 13 11 14 8 8 9 4 8 5 7 8 8 14 12 6 3 1 3 5 9 11 16 19 20 18 18 13 12 13 14 16 18 18 19 19 18 16 18 18 17 16 15 14 14 12 12 12 12 11 11 11 12 12 12 12 12 12 11 12 12 11 11 12 11 11 11 11 12 12 12 11 12 12 11 11 11 11 10 10 9
10 11 11 10 9 8 6 8 7 9 9 11 12 12 13 13 12 13 7 4 9 8 6 4 7 6 4 4 4 13 13 13 12 10 10 12 14 11 18 19 19 20 16 13 12 12 13 15 18 18 19 20 19 18 19 19 17 16 15 14 14 13 12 12 11 12 12 11 12 12 13 13 12 12 11 11 11 10 8 10 11 11 11 11 11 12 12 11 10 11 10 10 10 9 9 9 8
9 9 9 9 9 8 9 8 10 9 10 11 10 11 10 12 14 13 5 3 13 11 8 7 4 6 7 10 1 10 7 11 13 12 10 15 13 10 19 18 18 19 18 13 12 12 11 14 18 18 18 19 18 18 18 19 17 15 15 14 14 14 12 12 12 12 12 13 13 13 13 13 12 12 11 11 11 9 8 9 11 11 11 10 10 11 11 10 9 9 9 9 8 8 8 7 6
9 8 8 8 8 7 8 7 10 11 10 10 11 12 14 14 17 16 6 3 14 8 5 7 6 10 9 10 14 10 11 9 10 11 9 11 6 14 16 18 18 16 14 13 12 11 11 16 18 18 18 18 19 18 17 17 17 16 15 15 14 13 13 13 13 13 12 14 13 13 13 13 13 12 12 11 10 9 8 8 9 9 9 11 11 11 10 9 8 8 8 8 7 7 6 6 4
8 8 8 7 7 7 7 7 10 9 12 10 11 11 15 15 15 10 8 12 5 3 6 8 6 8 2 8 5 5 8 11 11 10 8 11 14 15 17 18 16 16 14 15 13 12 14 20 18 18 18 19 18 17 16 16 16 16 15 15 15 14 13 13 12 13 13 14 14 13 13 13 13 12 11 11 11 11 11 9 8 9 10 11 11 10 9 8 8 8 7 7 6 7 6 6 5
9 9 8 7 6 6 7 9 11 12 12 12 13 11 14 14 15 18 10 12 10 1 5 6 8 11 6 8 6 8 9 7 8 8 11 13 21 21 16 13 15 15 15 14 13 11 13 19 19 19 18 18 18 17 16 16 16 16 15 14 14 14 13 13 13 13 14 14 13 14 13 13 12 11 11 10 10 10 10 9 9 8 8 9 10 10 9 8 7 7 6 6 6 7 7 6 5
6 7 7 8 9 7 9 12 14 14 14 17 14 16 17 18 17 15 17 16 3 7 5 5 2 8 8 9 13 8 10 14 8 9 11 17 23 17 14 13 15 17 17 14 13 13 16 16 17 18 18 18 17 17 17 16 15 15 15 14 14 14 13 13 13 13 14 14 13 13 12 12 11 11 10 10 9 9 9 8 8 7 7 8 9 8 8 8 7 6 5 5 6 6 6 6 5
8 7 5 9 8 7 11 12 14 13 14 16 17 20 20 20 19 16 21 15 4 6 0 8 5 4 10 4 8 8 10 9 15 16 17 15 17 15 12 12 14 17 17 15 13 12 17 15 16 18 18 18 18 17 16 15 14 14 15 14 14 13 14 14 13 13 13 13 14 13 12 11 11 11 10 10 9 8 7 7 7 7 6 6 7 6 8 7 6 5 4 5 5 5 5 5 5
7 8 5 9 12 9 13 14 14 13 15 16 19 20 20 21 21 22 23 11 8 8 11 11 7 5 5 4 14 6 10 14 17 19 18 17 14 11 9 13 15 17 18 16 14 13 14 15 15 17 18 18 17 16 15 14 13 14 14 14 13 14 13 14 14 13 13 13 13 12 12 11 10 10 10 9 9 8 7 6 6 6 6 6 6 5 7 6 4 5 4 4 5 5 5 4 4
8 7 8 7 8 15 15 15 15 14 16 17 17 17 17 16 18 21 21 19 12 8 11 9 11 10 4 12 12 9 6 17 20 18 18 17 15 10 9 11 17 20 17 16 15 13 13 16 15 16 16 17 16 14 13 12 13 13 14 13 13 13 14 14 14 14 13 13 12 12 11 11 10 10 10 9 9 8 7 6 5 6 5 4 5 4 4 4 3 3 3 4 4 6 5 5 3
8 8 7 10 12 13 15 14 16 16 18 17 19 21 19 16 18 20 21 21 12 6 8 11 12 11 8 3 9 9 16 16 18 18 18 15 13 10 11 15 19 18 18 17 15 13 14 14 17 15 15 15 14 13 12 11 11 12 13 13 13 14 15 15 15 14 13 13 12 12 12 11 10 10 9 9 9 8 7 6 5 4 4 3 3 3 3 3 2 3 3 3 4 5 5 4 3
10 10 9 12 13 13 14 15 17 15 19 19 18 20 15 19 19 19 22 17 4 6 11 8 8 9 10 7 9 11 13 17 15 16 15 12 11 13 16 14 17 17 19 18 17 14 14 14 13 16 14 14 13 13 11 11 11 13 14 13 14 13 15 15 14 14 14 13 13 11 11 10 10 10 9 9 8 8 7 6 6 4 4 3 2 2 2 2 1 1 1 3 4 4 4 4 3
11 9 12 12 12 13 15 18 17 19 17 16 16 15 18 22 19 20 13 8 7 10 14 10 7 11 8 3 11 17 15 16 15 16 12 12 12 15 14 15 16 19 18 18 17 15 15 13 12 13 13 14 12 12 12 12 11 12 14 14 15 15 16 15 15 14 13 13 12 11 11 10 10 10 10 9 9 8 7 6 5 5 4 4 3 3 3 2 1 0 2 4 3 4 4 3 3
11 10 10 13 13 15 15 14 14 15 15 17 18 20 22 19 21 17 5 5 11 12 9 11 10 7 6 12 11 11 14 18 20 17 13 13 11 15 15 15 18 17 18 17 16 16 14 13 12 13 13 12 11 11 13 12 12 13 13 14 15 15 15 15 15 13 13 12 11 11 11 11 11 10 10 8 8 7 7 6 5 4 4 3 4 4 3 3 1 2 3 4 4 4 3 3 3
12 9 10 11 13 15 15 14 14 16 15 16 16 17 16 19 19 6 3 5 9 8 10 7 11 7 4 10 12 14 17 20 21 18 14 14 13 14 15 14 15 16 16 16 16 15 14 13 13 13 12 12 11 8 8 11 14 13 14 14 15 15 14 15 15 14 13 12 12 11 11 12 12 11 10 9 8 7 7 6 5 4 4 4 3 3 3 2 3 3 4 4 4 4 4 4 4
10 10 9 12 14 15 13 15 14 15 13 15 16 16 13 11 8 1 3 7 7 8 4 8 8 9 2 11 13 20 21 21 20 16 15 15 15 14 16 15 15 15 14 15 14 14 14 14 13 12 12 12 10 8 9 10 12 13 13 15 16 15 15 15 15 14 12 12 13 12 12 9 9 9 12 9 9 7 5 4 6 4 3 3 3 4 4 4 4 4 3 3 4 5 5 5 5
10 10 12 12 15 15 13 15 14 13 13 15 15 9 9 6 5 5 1 1 6 8 6 9 10 6 11 14 29 24 22 18 17 18 15 13 12 10 9 10 11 12 10 14 14 14 15 14 15 11 12 13 11 9 9 9 10 13 12 14 15 15 15 16 15 14 12 12 11 10 8 6 6 5 7 7 10 6 7 8 5 5 4 4 3 4 4 4 4 4 4 4 5 6 6 6 6
10 11 12 15 14 16 14 17 13 13 17 15 9 11 14 9 10 6 6 10 5 8 12 10 10 12 9 23 23 24 22 20 16 18 16 15 10 10 10 10 11 12 12 11 13 15 14 13 14 13 11 13 12 8 8 7 9 10 11 10 10 12 13 14 12 9 11 7 10 8 6 5 5 5 6 9 5 7 6 7 5 4 4 4 4 4 4 4 5 5 5 5 6 7 7 4 5
12 11 12 16 14 14 15 14 18 15 16 16 9 11 3 6 9 4 4 5 9 11 12 13 7 5 20 23 23 22 21 18 15 15 17 17 13 14 11 9 11 11 11 10 10 14 12 11 13 14 13 12 12 10 8 7 11 7 10 9 8 11 12 12 9 9 8 8 8 7 5 4 6 6 5 7 6 9 8 9 8 6 5 6 6 6 5 6 6 6 6 7 7 8 5 4 5
15 12 14 15 15 16 17 17 17 18 20 15 15 6 6 2 8 7 6 6 8 11 10 12 11 15 19 18 20 18 19 19 15 15 17 17 16 14 12 11 12 11 10 10 11 11 12 10 13 13 13 13 10 8 8 8 8 7 7 7 8 7 8 8 8 8 7 8 8 6 6 7 4 5 7 8 11 6 6 8 8 7 6 6 7 5 7 7 9 8 8 7 6 5 4 5 7
11 14 14 13 15 17 18 18 19 21 17 12 11 7 3 8 9 6 6 7 11 13 9 10 11 17 21 21 21 20 17 18 17 17 15 16 15 12 11 10 12 10 9 9 10 10 10 9 11 11 12 12 11 9 9 9 8 8 8 7 7 7 7 7 7 7 7 7 7 6 7 6 5 5 5 5 4 6 6 5 4 3 3 4 7 5 4 5 6 5 4 5 4 5 6 5 6
10 17 18 18 16 16 15 17 21 20 10 8 10 8 7 6 7 9 11 9 7 10 8 11 13 15 24 22 21 19 19 17 17 17 15 14 17 13 10 10 9 8 10 10 11 11 9 10 10 10 11 10 10 9 9 9 10 8 7 7 7 6 7 8 7 7 7 7 4 6 3 3 1 4 4 3 4 4 7 6 6 6 7 6 7 6 5 4 6 6 6 6 6 5 6 6 7
15 15 17 19 19 18 14 17 15 8 10 9 12 11 11 8 7 12 9 10 10 16 8 9 1 16 24 23 21 19 20 18 16 14 7 3 8 13 11 10 10 9 10 10 11 10 10 10 10 12 10 9 10 10 9 9 8 7 7 8 8 8 6 7 7 6 4 5 2 3 6 3 2 2 6 4 5 3 3 2 4 6 7 6 7 6 7 7 6 7 7 7 6 7 9 7 4
16 14 15 18 18 20 20 20 11 6 11 12 9 10 13 11 12 10 9 10 11 13 11 5 7 11 22 21 20 19 18 18 14 13 13 5 10 4 10 11 11 9 10 11 11 10 10 13 11 12 9 9 8 7 8 8 7 8 8 10 8 7 7 6 5 5 5 5 4 3 4 3 4 3 3 2 1 4 4 3 3 5 4 3 2 5 4 1 2 3 2 4 7 6 4 3 3
18 17 17 16 16 17 19 19 14 9 3 8 11 11 13 13 13 13 10 12 13 13 11 7 9 8 21 20 19 16 16 14 14 15 9 10 11 6 9 7 10 10 11 11 11 11 11 11 11 11 9 9 7 7 7 6 6 6 6 7 5 7 6 5 4 5 6 5 4 2 3 2 4 2 2 3 5 3 1 2 2 1 2 2 4 3 3 1 2 3 4 5 3 3 3 4 2
18 18 16 16 17 16 17 18 17 15 8 8 12 16 15 14 13 14 11 13 12 10 14 12 11 11 16 18 17 14 16 14 13 13 11 8 4 5 10 7 9 9 12 11 11 10 10 11 11 11 10 9 8 8 6 6 3 6 5 6 3 6 3 6 3 4 3 5 4 2 4 3 2 3 5 3 3 1 0 1 1 1 2 4 3 4 3 0 1 1 3 4 5 3 3 5 2
14 18 18 17 18 19 12 16 18 16 12 11 13 13 14 13 12 11 13 17 10 13 12 7 12 13 14 16 15 13 17 16 13 13 12 10 10 9 10 8 8 11 12 12 11 10 9 10 10 10 9 8 8 7 5 5 4 4 4 4 2 4 2 2 4 4 3 3 4 3 4 2 2 4 3 3 2 2 0 1 2 2 4 4 4 1 1 3 3 2 3 3 3 1 3 4 4
17 13 17 21 18 18 17 15 16 14 14 15 13 14 12 15 15 14 13 15 16 19 12 11 13 13 16 17 16 15 14 14 14 13 16 15 10 11 13 11 8 10 11 11 9 10 10 10 11 10 8 8 7 7 3 6 4 3 5 3 2 3 3 2 4 4 3 3 5 4 4 3 4 3 3 3 3 1 1 1 2 3 2 2 3 0 3 2 2 1 2 2 2 1 3 2 3
14 18 16 14 18 17 20 18 14 12 11 12 12 15 17 16 17 16 17 18 15 19 14 15 16 13 18 18 16 15 15 16 14 12 14 13 12 10 9 10 9 10 8 11 11 11 12 10 10 9 9 7 7 5 4 5 5 6 5 4 3 3 3 2 2 4 3 3 6 5 4 4 4 4 3 3 3 2 4 3 3 4 4 4 1 3 2 2 2 2 2 2 2 2 2 3 3
14 16 14 12 12 15 21 19 16 15 13 13 11 13 14 17 18 17 17 19 16 12 13 15 15 13 16 19 17 15 16 16 15 13 13 13 10 14 13 13 11 10 10 10 12 12 10 8 7 8 9 7 7 4 7 2 3 5 4 2 3 2 2 2 3 4 3 4 5 4 4 4 5 4 4 3 2 2 2 2 4 5 5 5 2 1 2 1 3 2 2 3 3 2 2 3 4
14 14 12 11 12 13 17 18 17 17 12 16 14 13 11 14 18 19 17 19 13 13 13 16 14 16 10 18 15 15 16 15 14 14 14 12 14 12 13 10 13 13 10 11 13 13 11 9 8 8 9 8 5 3 6 5 2 4 2 3 3 4 2 4 3 2 2 5 4 3 3 3 5 5 5 5 4 1 2 1 4 6 8 6 2 3 2 4 3 3 0 2 0 2 2 4 4
11 11 15 13 13 11 15 19 20 17 13 16 16 13 13 14 16 19 18 18 17 16 16 17 14 13 12 7 8 13 13 13 15 14 12 13 14 11 11 13 2 11 11 11 11 11 12 10 9 8 8 6 3 4 4 5 3 2 2 3 5 2 2 3 3 1 1 3 2 4 3 2 3 4 4 4 5 7 6 8 9 8 6 1 3 2 2 3 3 1 2 2 1 2 3 4 3
13 15 12 15 14 12 13 18 19 22 15 16 19 12 11 15 17 16 19 19 18 15 15 16 15 6 16 15 8 7 8 10 8 7 7 6 10 8 8 7 6 10 12 13 13 12 10 9 8 8 6 5 4 4 3 5 4 1 2 5 4 1 4 6 6 4 1 1 3 2 3 3 3 4 4 4 4 4 5 4 2 2 2 3 1 2 3 3 2 1 1 2 2 2 3 3 3
14 13 12 13 16 14 13 12 21 21 20 15 19 15 15 12 15 17 15 18 20 17 15 13 9 17 13 10 8 10 10 11 9 3 7 8 8 9 6 9 9 11 10 11 11 10 11 9 8 9 6 4 5 4 2 6 2 1 4 8 12 12 9 7 7 8 11 9 4 1 2 3 3 2 2 2 2 2 3 4 5 3 2 1 2 2 3 2 0 0 1 1 2 2 3 3 3
11 12 12 13 15 17 15 14 16 21 22 19 17 19 18 18 18 18 19 21 20 17 12 17 21 17 11 9 9 10 7 8 6 6 8 4 6 7 7 10 9 9 9 11 11 11 10 9 8 9 6 6 6 4 3 4 2 5 10 7 4 3 4 2 4 5 6 5 8 8 5 2 2 1 2 3 3 3 4 1 1 2 1 2 2 3 2 1 1 0 1 2 1 2 3 3 3
16 16 13 14 13 14 14 18 14 22 19 17 19 15 17 18 21 22 16 21 19 8 18 15 20 17 12 8 8 7 3 4 7 8 10 4 5 4 5 6 6 6 8 9 10 11 10 10 9 8 8 6 7 5 4 4 6 8 4 4 3 2 4 2 1 4 4 4 1 3 5 5 3 1 3 1 2 1 1 1 2 2 1 1 1 1 1 2 2 1 1 1 2 2 3 3 3
16 15 15 16 16 15 16 19 14 21 17 18 19 18 16 16 22 23 19 16 15 17 18 17 14 15 13 10 5 8 9 4 4 4 4 10 8 4 4 5 6 7 8 9 9 9 10 10 10 10 8 7 7 7 7 5 7 6 3 2 3 5 3 1 1 1 4 5 5 3 2 3 4 2 2 1 2 1 0 1 1 0 0 0 0 1 1 1 1 1 1 1 2 3 2 2 2
18 15 16 14 17 15 15 17 16 20 13 14 18 18 17 16 20 20 14 14 13 20 18 16 16 14 13 13 11 8 8 7 4 5 6 3 4 7 6 6 7 10 9 8 9 9 9 12 10 10 7 4 5 3 7 6 4 4 5 5 4 5 2 3 2 1 3 2 4 6 3 2 3 3 3 3 1 1 1 0 0 1 0 0 1 1 2 1 2 2 1 2 1 2 2 1 2
20 15 13 14 14 15 18 16 20 16 14 10 16 18 16 17 19 17 14 13 12 17 17 15 16 13 11 11 11 11 12 10 9 7 4 8 6 9 6 2 5 7 8 9 10 9 9 9 10 10 8 9 5 7 8 7 6 6 6 4 5 4 4 2 3 2 2 1 6 6 4 4 3 5 4 2 0 0 1 0 1 2 3 3 3 3 2 2 2 2 2 2 3 2 3 2 1
16 15 14 13 13 14 13 18 20 16 11 10 14 16 12 14 16 16 12 14 20 20 21 17 13 14 15 16 14 14 13 11 9 9 10 10 9 8 9 6 5 5 7 8 10 10 8 9 11 11 10 7 8 7 8 7 7 6 6 5 5 3 3 1 2 4 2 3 4 8 6 6 2 3 7 4 3 1 1 3 2 2 2 2 2 2 2 2 1 0 1 3 2 4 2 3 2
18 18 15 12 14 17 16 12 16 14 13 11 9 11 11 12 14 13 3 22 21 19 18 12 10 11 12 13 14 16 16 15 12 11 10 12 12 13 10 8 7 5 5 8 9 9 7 11 10 7 8 9 7 9 9 9 8 7 6 6 6 5 4 3 2 2 2 1 4 9 8 4 7 6 7 4 1 2 4 2 3 2 2 2 3 4 4 4 4 3 3 2 2 2 4 3 3
15 21 19 16 13 17 18 16 13 10 10 13 13 9 11 12 16 15 12 11 16 14 18 17 16 14 14 14 14 14 12 13 16 16 14 13 14 10 10 9 9 8 7 7 8 9 10 10 10 9 9 8 8 9 9 8 7 8 8 7 6 4 3 2 2 4 2 0 2 4 9 7 8 4 5 4 4 3 2 2 3 3 3 3 2 2 2 3 3 3 2 3 3 3 3 4 3
15 16 20 19 15 16 18 20 14 11 11 12 15 13 6 12 16 15 13 18 17 12 14 16 17 17 16 14 15 14 14 12 12 9 9 12 13 12 10 10 10 10 9 8 8 9 12 9 9 10 8 8 7 7 7 5 5 4 5 6 6 5 5 3 3 1 1 1 2 2 3 5 6 2 2 1 2 5 4 4 3 4 4 3 1 2 2 2 2 3 4 4 4 4 3 3 4
14 14 18 20 18 17 19 19 15 10 10 8 16 14 11 9 14 15 17 19 20 18 16 17 15 17 17 16 17 16 14 14 10 9 9 12 13 14 14 11 10 10 11 11 9 9 10 9 10 10 8 8 8 7 7 6 6 5 5 6 5 5 5 5 5 3 4 2 1 2 1 5 6 3 5 6 7 5 5 5 5 4 4 5 5 3 3 3 5 4 3 3 2 2 3 4 4
12 13 17 20 19 19 19 18 15 11 9 10 12 17 12 11 7 16 17 16 16 19 18 18 18 19 18 18 18 17 16 14 12 10 11 12 14 13 12 11 11 11 11 11 10 10 11 11 11 10 11 10 8 8 7 7 5 5 4 6 6 4 5 5 6 5 3 5 3 2 6 7 4 6 6 6 6 7 6 6 5 5 5 4 6 5 5 5 3 3 4 4 4 4 3 3 3
15 12 17 17 15 15 13 10 15 10 8 9 13 15 12 12 9 11 16 14 17 17 18 17 18 20 19 17 17 17 16 14 12 13 13 12 11 10 9 12 10 11 10 11 11 11 11 10 11 12 12 8 9 9 7 7 5 3 3 5 6 6 5 5 3 4 5 6 6 5 2 4 4 5 5 6 5 7 7 5 5 6 5 5 4 4 6 7 7 6 6 5 5 4 3 3 4
14 18 17 16 15 12 10 11 12 12 9 14 16 18 15 10 11 12 12 14 16 15 12 14 17 17 16 17 17 13 10 11 13 12 8 6 7 7 10 8 5 6 8 9 10 11 11 10 11 12 11 10 10 9 8 7 5 3 2 3 5 6 6 4 3 2 2 3 2 3 4 3 3 4 3 4 5 6 5 5 5 5 5 6 7 7 6 6 6 6 6 6 5 6 5 5 5
19 13 15 13 12 11 10 10 9 6 11 16 20 17 21 12 8 12 9 14 23 20 18 17 19 18 18 17 16 15 13 11 12 11 9 9 7 7 9 11 7 6 7 9 8 9 11 10 11 12 11 10 9 9 8 7 6 4 3 3 5 5 5 5 3 1 0 2 3 5 2 2 3 3 4 4 5 4 4 6 6 6 6 6 6 5 5 5 4 4 5 5 5 5 4 4 4
17 14 13 13 11 7 8 10 10 12 10 12 17 19 14 16 9 8 14 13 18 21 19 18 19 20 18 19 19 15 12 12 13 10 8 7 7 8 10 11 9 9 7 7 7 5 4 10 12 14 13 11 10 9 8 8 6 6 6 6 6 5 7 4 2 4 7 5 5 4 3 1 2 4 3 4 5 6 5 6 6 5 6 6 6 7 7 8 7 7 7 5 5 5 5 5 5
19 17 13 13 13 11 9 12 6 8 9 11 14 18 15 9 11 16 14 10 17 21 23 21 21 20 18 19 18 15 15 13 11 9 8 7 8 8 8 9 8 8 10 11 10 13 9 10 12 14 13 11 9 9 7 7 7 6 6 6 6 7 8 8 8 7 6 5 4 5 5 4 2 2 5 6 6 6 5 5 5 5 5 6 6 6 5 5 5 6 6 7 8 7 7 8 7
17 16 15 13 13 9 8 10 9 9 8 12 15 12 9 12 4 14 16 7 10 11 20 22 22 19 18 19 18 19 17 14 10 10 9 8 6 8 7 7 7 6 9 12 12 13 12 13 14 14 14 11 10 9 9 9 7 8 7 7 8 7 8 8 7 6 6 7 6 5 5 6 6 6 6 5 7 5 5 3 3 4 4 4 4 4 5 4 5 5 5 6 7 6 8 9 8
15 15 14 13 13 8 11 6 8 9 9 9 11 7 7 8 2 9 7 4 9 11 19 17 17 16 18 16 17 16 15 13 12 10 10 8 8 8 7 5 9 8 9 11 11 8 10 11 14 14 15 14 12 11 9 8 8 7 8 9 9 8 7 7 6 6 6 6 5 3 3 5 6 7 6 6 5 2 1 2 3 1 2 3 4 5 5 4 5 5 4 5 5 6 8 9 8
14 15 16 16 14 12 5 4 7 4 3 7 4 8 6 7 3 7 6 5 9 9 18 18 20 17 18 14 12 14 13 13 12 11 10 13 12 13 12 10 10 11 9 11 11 9 12 13 13 14 14 13 12 11 10 9 8 8 9 9 9 9 9 8 7 7 6 4 2 4 4 6 6 5 4 2 1 1 1 2 2 3 4 5 3 3 3 3 3 2 3 4 5 6 6 7 7
11 14 14 13 14 13 6 6 4 2 7 5 9 12 10 8 5 4 8 12 11 8 12 18 14 16 16 14 14 14 14 11 13 13 13 13 12 12 12 8 10 9 10 12 13 8 10 12 13 13 12 14 12 12 11 9 9 10 9 9 9 9 8 7 5 4 4 4 4 4 4 4 3 1 2 2 1 2 2 2 2 3 3 2 2 3 5 5 4 4 5 4 6 6 5 4 5
14 14 12 14 10 13 11 4 7 8 7 5 11 13 13 11 7 8 10 13 13 12 8 14 17 13 15 16 16 14 12 11 11 11 10 10 11 8 12 9 8 8 10 12 11 11 11 12 12 11 11 12 13 11 10 9 9 8 8 8 8 7 7 5 4 4 4 5 5 4 3 3 2 2 1 1 2 1 2 2 3 4 3 4 4 5 5 4 4 5 6 5 6 6 6 6 6
18 12 14 15 10 11 9 6 7 8 7 6 10 14 7 11 7 16 13 11 12 12 10 10 17 18 13 16 16 14 11 9 9 9 9 7 8 6 12 14 14 12 12 10 12 12 14 12 12 12 11 10 11 12 10 10 9 8 8 8 7 7 7 6 5 5 5 5 5 5 5 3 3 2 3 2 2 4 3 3 3 2 3 3 3 4 4 4 5 5 6 5 6 7 7 7 7
16 15 16 14 9 7 10 9 12 9 6 7 5 8 9 9 8 13 16 14 12 11 10 8 9 18 18 16 13 13 11 9 10 11 9 11 10 7 11 12 11 10 11 9 12 13 13 11 12 12 13 11 11 10 10 9 8 7 7 8 8 7 7 7 7 6 5 4 4 4 4 5 3 3 3 3 4 4 4 3 4 4 5 5 5 6 6 5 5 6 5 6 7 7 8 6 6
14 14 14 14 14 12 13 11 12 12 9 6 7 6 7 4 5 6 13 14 13 14 12 9 10 17 21 16 17 16 13 12 13 12 11 11 11 8 12 12 14 14 12 11 11 13 13 11 11 12 11 12 11 11 10 10 8 8 8 9 9 7 7 7 7 6 5 5 4 3 5 6 5 4 4 5 4 2 3 4 4 5 6 7 9 9 8 7 7 7 6 5 5 7 7 7 7
Wind_Direction
298 296 305 302 297 287 292 289 288 296 265 249 253 236 243 242 265 280 306 306 301 62 109 217 103 358 5 347 333 65 75 78 106 31 64 112 154 143 112 116 116 115 118 122 127 130 128 126 124 123 121 118 122 121 120 118 117 116 117 117 114 112 111 111 112 113 115 114 112 108 108 105 103 100 102 102 103 107 109 109 104 98 100 100 98 96 95 96 96 93 89 86 84 80 75 75 76
308 313 303 286 276 293 297 340 290 279 274 278 271 286 291 288 243 230 250 280 261 98 59 343 39 23 280 350 302 106 59 61 78 87 107 129 138 161 121 121 123 120 119 129 131 130 129 129 125 124 123 124 123 126 124 122 121 120 121 120 119 114 116 113 113 116 118 115 112 109 107 105 102 102 104 104 105 106 104 103 102 101 100 99 97 96 94 94 95 93 91 88 82 78 75 73 74
310 309 304 298 288 260 281 257 268 272 270 267 271 263 258 255 276 275 273 215 47 44 62 306 357 240 225 202 64 72 89 87 100 102 111 133 143 118 121 125 121 121 125 128 132 128 130 132 128 126 126 125 124 125 128 124 123 123 124 122 121 122 118 119 118 119 116 113 110 110 108 107 106 106 106 106 105 98 93 96 103 102 98 96 96 99 98 93 87 89 87 80 74 69 67 68 67
287 281 280 307 293 307 287 287 271 265 266 270 278 275 269 250 225 235 242 31 70 42 357 322 314 76 293 291 104 120 105 95 92 119 126 144 125 129 132 118 120 124 128 129 128 128 132 135 130 129 129 126 128 128 128 126 124 125 127 126 124 124 124 122 121 120 116 114 112 111 112 109 109 105 105 96 85 88 87 85 91 96 94 96 97 95 98 98 99 91 83 78 72 61 53 50 49
276 274 267 275 304 279 288 274 272 268 258 257 259 264 271 289 289 300 286 55 50 24 7 285 304 273 158 276 310 103 101 103 100 112 131 126 141 135 121 120 126 129 129 128 125 126 134 137 132 130 130 130 128 128 127 129 129 130 129 129 129 127 127 125 122 120 121 117 114 114 111 109 108 107 103 91 85 80 76 77 82 88 88 90 96 103 104 102 90 82 76 70 61 48 41 43 46
266 262 262 248 254 339 289 264 259 260 265 272 271 269 272 278 293 327 308 127 122 227 275 305 284 297 299 56 89 129 144 114 118 109 131 122 109 117 122 126 130 132 128 119 118 125 136 138 134 132 131 130 130 131 133 133 133 131 132 132 131 130 127 125 124 125 121 119 119 117 112 110 108 102 98 95 90 84 81 76 72 83 101 105 109 105 105 105 99 81 70 58 48 43 40 35 40
262 270 238 233 236 238 253 256 259 264 260 269 273 276 281 282 278 302 287 286 131 109 221 263 261 263 251 107 76 101 94 126 121 120 123 127 120 126 133 138 135 132 123 118 120 128 135 137 134 131 132 132 133 134 137 137 133 134 134 134 131 130 130 127 124 125 124 123 120 116 114 110 107 106 104 98 93 91 85 81 77 77 93 114 118 113 109 94 83 81 70 55 41 38 43 42 47
255 271 278 268 269 228 236 248 253 252 257 255 265 271 274 277 285 262 266 280 13 311 137 153 254 285 284 255 130 119 146 123 112 123 128 134 120 120 130 137 144 127 121 116 119 122 133 136 133 132 131 134 134 135 135 135 135 137 138 135 132 130 132 129 127 125 128 124 121 117 115 114 111 109 107 106 98 94 94 92 93 80 71 94 94 83 112 101 82 76 68 52 31 38 36 47 59
238 233 245 264 262 263 267 264 269 259 258 248 252 257 266 275 281 283 288 308 300 287 279 287 267 207 241 346 102 112 103 121 115 118 126 118 111 121 137 147 140 125 120 115 116 127 134 135 133 132 134 135 136 136 136 137 137 138 137 136 134 132 134 133 129 125 128 124 122 120 119 117 116 112 111 111 107 102 104 105 101 95 82 81 101 87 101 86 85 74 57 36 24 25 39 39 43
236 221 225 238 252 256 258 258 256 255 263 266 268 263 258 255 251 260 268 270 238 216 267 250 255 259 250 112 132 125 134 118 118 120 125 122 124 142 159 142 121 119 111 115 122 130 136 138 133 132 135 135 136 136 136 136 138 138 136 135 135 138 138 134 127 129 129 125 122 122 121 120 119 117 115 114 117 111 106 109 112 105 99 98 89 83 89 93 94 92 56 28 10 20 13 27 27
235 207 235 249 240 254 254 257 255 259 259 261 263 264 266 262 263 263 256 249 253 259 256 248 250 248 232 282 111 96 111 113 121 127 131 131 144 149 106 92 108 114 119 121 123 128 136 139 136 133 134 135 132 131 132 133 136 136 136 136 141 141 136 129 130 133 129 125 126 126 125 126 125 123 123 122 120 124 120 116 118 125 118 105 112 98 119 104 77 101 51 13 5 8 11 6 13
238 229 203 230 244 248 253 255 256 255 257 258 259 261 256 249 246 247 254 257 242 238 237 237 255 282 282 133 126 118 116 122 121 125 133 135 145 114 105 115 114 118 121 122 124 131 137 139 138 136 131 131 128 126 127 128 127 137 140 138 142 137 132 132 135 133 129 129 130 130 132 131 127 127 124 125 126 127 126 127 127 134 143 140 147 156 126 127 103 58 36 351 340 355 359 357 345
237 228 230 241 238 240 250 256 260 267 269 263 262 245 245 256 254 246 251 281 280 268 268 285 288 237 249 24 127 132 133 133 130 130 133 152 142 121 119 119 120 121 123 125 128 134 137 141 139 141 136 127 123 121 123 122 127 137 139 138 139 133 134 137 137 135 131 133 135 136 134 134 133 130 131 131 131 128 129 125 132 139 151 163 170 186 163 155 175 338 325 306 316 338 339 341 327
226 229 239 246 246 246 245 255 257 255 249 250 251 265 275 278 268 249 221 215 241 251 273 278 279 335 113 109 141 141 139 144 137 137 150 153 144 124 124 127 124 126 129 131 130 136 142 140 141 139 140 139 135 121 122 125 134 138 138 140 139 136 138 140 139 136 135 138 139 140 140 139 140 138 136 133 131 124 126 131 124 136 146 165 172 172 178 171 176 252 291 285 292 306 315 315 320
233 223 243 252 253 250 245 245 246 250 257 263 270 269 251 248 249 51 345 278 255 272 293 309 278 216 214 166 161 152 149 145 140 146 151 146 126 132 128 130 130 132 132 130 136 140 140 142 136 140 144 143 141 138 136 140 142 141 142 142 139 138 140 143 140 140 142 143 147 150 150 150 149 147 141 134 127 136 135 134 138 136 142 151 172 182 188 206 208 249 260 273 279 288 292 296 287
224 235 231 242 241 246 247 251 244 252 259 255 250 256 283 51 43 146 158 232 278 297 307 265 178 273 292 247 176 138 139 141 141 150 147 139 130 133 133 134 133 133 135 140 141 141 142 137 141 147 145 143 146 148 145 142 144 145 147 145 143 142 144 145 143 145 149 153 161 163 158 152 148 147 147 143 142 137 164 137 138 144 140 146 163 174 185 203 216 227 248 267 278 279 281 284 276
215 237 239 233 243 242 242 245 251 253 261 248 253 272 258 245 128 190 217 358 245 251 234 246 276 172 259 83 109 132 137 140 149 148 141 136 135 140 145 144 139 136 141 149 150 146 140 143 148 145 143 145 146 147 145 141 145 147 144 145 145 145 147 148 149 155 161 168 167 162 160 156 160 153 159 148 150 146 114 120 128 139 151 157 168 187 195 203 213 225 237 254 269 274 276 279 269
216 218 231 238 242 238 241 245 245 253 264 276 264 225 230 234 228 150 158 227 249 258 267 257 213 264 107 116 123 132 138 146 149 144 143 141 145 147 150 151 148 146 150 156 156 143 142 151 150 142 145 150 145 144 148 145 149 155 150 147 148 150 152 155 159 166 175 169 171 164 177 187 166 163 185 150 156 130 131 131 139 147 153 158 182 185 202 210 217 225 236 245 259 268 272 274 241
222 222 225 238 234 243 246 251 250 256 261 261 237 218 157 232 260 176 190 197 210 226 233 244 205 188 107 120 129 133 140 144 145 144 147 150 153 152 153 158 148 152 152 158 145 133 147 158 147 147 151 145 148 147 145 152 160 162 153 160 154 159 166 164 171 176 182 175 178 176 189 199 186 177 166 166 142 152 143 158 160 165 173 177 186 192 196 211 214 226 231 238 248 264 269 243 248
216 235 228 234 241 250 250 247 257 262 266 267 267 160 122 263 247 91 208 257 248 230 223 204 224 124 121 123 126 134 138 142 147 148 153 157 152 153 155 154 147 159 157 154 134 139 152 166 146 150 147 145 149 147 144 151 169 162 158 166 159 172 171 181 178 188 183 182 182 177 192 208 163 102 116 131 131 133 151 163 173 176 186 198 200 200 206 214 214 221 229 235 248 250 238 236 240
203 225 236 237 230 240 248 258 256 249 251 265 270 35 202 217 250 240 252 222 243 266 259 235 196 150 128 135 135 137 142 151 153 156 161 163 152 151 155 152 153 162 153 138 138 145 159 144 139 140 143 152 151 143 150 163 169 167 167 165 168 173 175 195 177 202 176 201 171 182 196 201 145 141 148 158 177 160 151 175 176 182 187 211 205 228 196 205 203 214 225 228 241 237 243 242 244
217 224 233 242 249 247 239 243 248 256 266 274 281 287 244 166 245 235 230 237 243 223 241 271 212 142 140 143 143 140 148 157 163 163 170 161 155 152 152 149 151 148 142 146 145 148 151 139 140 142 150 155 146 150 160 169 166 167 171 158 168 177 180 188 182 196 182 192 176 192 141 104 8 139 163 168 193 192 159 175 182 184 186 204 185 230 205 198 193 207 202 203 218 236 240 248 249
229 224 232 233 242 256 251 240 240 266 255 208 238 257 281 262 242 240 220 236 252 267 293 271 197 147 146 141 140 147 154 161 167 171 144 128 156 145 152 152 149 151 156 148 141 146 147 134 144 148 159 154 154 163 164 163 170 168 171 152 178 178 184 183 193 182 162 162 203 176 115 124 195 222 167 182 196 177 184 135 167 202 182 194 187 213 229 180 197 209 201 198 206 220 231 234 248
225 233 229 233 236 241 252 263 288 235 249 262 249 260 261 263 256 255 215 237 249 267 299 257 263 147 139 144 144 151 162 162 159 76 80 90 311 292 151 153 157 156 154 145 144 146 151 147 155 153 160 155 158 169 166 166 188 164 171 165 182 174 177 185 186 172 143 151 213 108 106 126 204 229 108 164 29 52 42 33 359 350 14 351 219 225 271 279 250 258 250 213 209 221 244 233 244
226 229 231 242 230 235 247 253 259 265 215 256 272 262 254 252 250 253 235 237 238 245 244 254 227 227 149 145 147 156 156 147 101 133 153 150 169 239 273 159 154 158 144 147 144 148 151 149 158 156 155 157 159 162 183 171 193 154 145 168 193 159 184 182 169 167 145 149 179 119 108 210 196 204 134 74 60 36 13 68 59 324 308 310 294 330 292 276 311 332 340 317 319 312 295 287 294
220 232 230 236 248 236 228 245 246 243 232 216 235 246 253 258 255 258 254 243 235 233 235 211 229 244 161 150 146 159 141 128 127 135 152 122 118 151 266 200 162 154 143 140 142 148 153 150 156 159 156 157 157 169 202 173 181 138 136 160 220 148 180 165 146 142 129 132 139 142 149 218 242 78 79 91 112 146 137 108 97 250 281 265 248 230 272 306 323 333 314 306 306 320 309 312 322
213 221 237 236 238 250 233 236 239 234 236 225 234 237 242 238 244 242 233 253 256 243 242 171 221 226 140 147 146 148 136 137 142 141 146 150 147 156 251 252 177 145 139 143 146 151 148 155 155 155 154 152 160 184 204 141 129 137 134 148 184 155 155 151 150 126 109 149 139 144 130 219 100 104 117 125 116 112 308 330 227 193 224 225 252 277 333 268 229 224 248 270 248 313 326 307 313
246 231 218 233 238 243 248 236 241 228 221 225 235 249 250 241 228 238 241 221 226 243 228 213 221 220 137 145 150 147 137 137 138 153 149 159 167 165 192 230 181 138 139 141 142 143 152 158 151 154 154 152 167 192 175 122 151 127 127 148 197 177 158 181 142 114 170 179 132 130 163 185 108 126 125 143 133 132 228 253 313 294 274 239 253 281 226 260 282 210 241 245 278 269 295 302 309
238 244 248 235 222 234 241 241 225 233 240 223 226 251 243 236 239 231 229 247 217 224 216 219 222 208 143 162 156 152 147 138 143 155 158 168 168 154 181 217 167 147 143 146 147 149 157 153 153 153 148 153 179 193 137 139 145 122 147 197 142 195 150 110 138 150 184 167 131 151 171 152 139 131 157 164 144 146 209 173 231 255 279 276 218 224 275 282 277 291 267 288 324 324 291 266 275
243 237 239 235 241 233 231 236 232 218 227 230 213 236 235 233 235 236 227 230 236 185 212 224 218 209 194 157 155 154 144 139 151 158 163 166 159 157 188 185 160 149 156 149 153 156 154 146 148 148 148 169 178 200 125 126 115 125 163 164 154 141 117 133 203 158 193 112 134 154 150 162 135 152 154 144 118 194 300 344 335 312 287 260 219 264 254 295 267 267 273 266 248 249 248 257 240
230 231 236 234 229 234 218 226 212 225 207 222 217 239 240 235 226 230 229 228 193 202 215 234 216 211 183 151 146 149 144 143 150 159 167 169 158 178 165 155 170 158 153 150 156 151 143 147 149 153 152 161 187 143 130 125 124 138 158 155 150 111 176 205 179 172 157 130 137 149 157 167 138 162 165 172 154 18 342 5 251 251 253 240 200 216 197 233 237 241 296 304 349 241 261 285 278
230 224 219 225 233 233 226 207 213 214 209 212 215 233 243 244 229 213 219 230 205 205 216 228 218 213 139 115 97 137 143 148 157 151 164 158 155 150 153 170 184 148 142 142 145 148 148 147 149 142 141 157 158 100 93 104 87 89 186 134 101 153 207 227 122 155 101 96 132 142 160 156 159 169 172 183 162 157 201 210 219 202 206 151 236 217 214 238 230 222 187 231 236 277 276 264 244
220 221 219 217 221 230 242 205 204 208 220 201 214 235 229 239 252 212 208 220 219 198 214 221 221 193 71 61 21 308 130 140 134 128 142 159 138 145 165 138 169 143 148 151 147 150 142 133 133 123 136 151 123 105 92 100 92 266 232 92 101 248 351 1 10 22 340 137 141 156 150 166 179 190 183 192 186 178 202 176 208 212 184 218 196 207 235 227 236 197 204 222 216 245 272 297 299
212 212 224 221 219 215 234 226 195 198 208 209 204 229 239 247 237 236 191 210 225 195 203 213 58 59 63 66 62 20 8 356 350 50 221 195 150 159 137 163 164 150 147 145 144 140 135 136 133 128 140 125 102 115 121 109 154 191 54 42 33 34 20 17 358 347 339 340 325 101 146 170 217 166 204 188 174 210 191 202 186 193 209 159 212 226 240 244 192 142 303 288 304 321 295 283 304
205 203 212 222 229 222 219 232 186 193 193 222 207 218 232 243 253 246 206 200 221 201 185 82 82 66 43 24 37 59 359 1 342 295 299 292 165 157 141 153 163 152 147 152 149 137 138 138 126 126 124 118 108 127 106 118 134 86 51 51 74 115 120 35 51 21 331 324 328 338 317 265 206 173 210 204 176 210 228 197 197 144 195 187 207 239 243 217 152 168 231 284 278 269 288 300 291
216 203 207 218 224 217 219 228 214 180 188 211 224 215 221 235 250 253 237 195 209 181 95 107 95 103 90 79 47 73 82 351 7 328 316 296 239 184 140 150 164 143 146 151 146 135 136 129 127 130 127 129 119 142 138 161 103 71 107 132 140 85 65 49 196 179 199 261 261 301 299 324 322 226 229 229 183 253 278 271 115 200 180 211 216 263 335 345 3 348 320 324 316 290 282 287 294
215 217 210 213 223 231 213 230 207 171 189 207 220 221 220 230 240 247 252 199 175 96 83 90 104 107 123 118 109 104 118 124 148 228 289 302 313 290 167 166 160 144 152 147 141 138 136 131 139 135 128 135 156 160 165 149 120 134 118 92 69 81 47 318 300 353 31 327 316 270 301 332 302 306 295 213 254 202 221 285 114 276 230 257 86 278 282 296 305 324 289 233 273 293 282 275 276
237 222 220 213 216 231 218 215 217 169 198 204 215 223 220 229 242 248 247 146 154 96 100 107 119 119 131 147 140 139 119 158 183 168 168 51 329 242 237 165 158 155 153 149 144 139 142 133 137 124 101 139 171 130 106 90 86 108 122 162 116 118 146 157 155 206 102 288 289 292 307 259 280 279 261 249 189 105 250 349 81 269 105 254 290 305 301 304 302 287 293 303 258 280 283 286 313
240 247 221 225 214 224 237 208 229 185 184 221 202 222 219 223 242 251 223 170 103 109 117 122 119 133 135 143 143 144 154 157 172 181 178 140 174 265 244 188 172 160 151 149 144 141 142 140 119 110 173 176 111 80 87 100 118 133 140 135 118 126 199 169 145 107 93 23 303 290 277 288 275 298 274 242 262 151 318 134 319 344 4 10 334 330 350 327 324 320 320 311 314 309 295 273 255
232 236 246 221 213 205 226 218 217 194 172 213 202 211 224 220 238 243 246 120 106 121 126 135 144 144 152 152 155 149 152 150 177 188 172 151 164 199 227 187 193 162 159 145 150 150 145 131 118 162 185 84 85 84 92 96 106 102 82 93 99 100 108 106 36 87 88 43 323 306 279 225 269 237 279 316 254 144 28 14 16 20 340 327 342 314 317 306 307 8 304 295 299 307 315 330 334
228 234 236 242 217 211 233 200 218 181 171 221 231 204 222 227 220 226 105 106 118 129 132 136 141 138 140 137 143 157 157 167 177 191 179 167 178 189 198 185 160 165 164 149 155 150 136 127 150 165 88 96 109 125 129 134 135 130 128 114 115 110 101 70 70 63 40 149 195 242 247 217 220 188 249 168 8 17 55 353 11 338 337 338 358 340 337 348 337 331 340 339 335 305 318 327 321
219 227 233 237 230 219 210 237 193 184 201 189 227 229 221 213 226 222 143 115 120 152 142 144 140 141 139 149 158 165 170 173 177 187 187 172 175 178 186 183 164 165 169 154 148 135 130 144 157 104 117 120 134 140 141 142 149 149 142 130 130 128 116 104 58 66 82 177 89 318 327 349 322 351 2 2 38 50 28 7 16 350 349 9 349 345 331 330 318 307 338 340 343 347 336 323 307
215 212 226 238 237 227 199 223 167 191 207 185 204 239 227 202 218 217 187 130 138 146 151 144 142 148 154 159 167 167 173 181 201 193 174 168 167 176 181 173 166 167 154 146 142 140 140 149 119 117 118 129 132 135 131 110 93 89 109 118 121 133 112 107 90 102 194 106 112 325 339 314 256 243 171 25 65 38 15 14 15 360 350 327 1 353 336 306 342 352 8 343 351 336 332 320 324
216 206 208 233 250 232 210 216 165 189 196 219 198 217 249 221 205 206 208 144 149 153 153 155 152 151 159 165 166 172 172 183 187 201 194 178 171 178 174 170 167 166 155 147 149 143 143 134 125 127 123 128 130 125 135 126 126 139 143 112 102 106 114 126 103 52 351 356 39 229 59 291 247 73 40 23 16 33 12 10 13 359 0 347 347 331 310 8 9 5 352 320 319 341 341 326 328
215 192 209 224 235 247 222 215 197 190 179 224 214 205 228 250 193 191 207 154 156 152 154 159 158 159 163 165 167 167 175 178 184 185 199 190 181 175 166 164 166 157 154 153 149 147 135 123 125 128 128 135 126 125 126 130 133 135 125 115 118 110 112 102 102 121 220 211 198 224 196 224 53 33 36 34 15 30 7 8 352 356 3 357 347 342 5 357 346 344 342 348 350 349 341 327 318
216 204 206 222 230 254 252 239 232 216 206 226 215 193 222 224 241 204 203 161 159 151 155 164 163 164 170 167 163 167 176 179 182 182 189 185 176 165 165 167 161 151 158 150 141 142 126 130 132 131 132 127 130 133 130 133 108 90 109 116 120 112 105 106 107 167 195 169 183 195 96 34 52 41 45 37 28 24 3 350 5 5 350 343 340 337 3 360 358 353 356 355 345 331 328 329 338
208 222 199 206 224 230 247 265 238 213 217 227 233 196 207 229 209 240 197 172 155 156 159 160 165 164 169 165 164 153 164 174 174 175 161 163 124 106 65 9 339 154 144 154 139 132 129 138 133 121 121 127 136 133 137 130 111 103 101 114 107 112 111 101 121 180 173 147 170 94 69 59 63 67 38 56 54 20 0 337 10 358 1 2 9 9 5 354 354 352 349 343 338 335 339 334 324
211 216 214 185 209 224 239 253 227 205 219 218 232 226 191 231 206 230 241 159 152 153 169 165 166 165 165 165 153 165 178 181 172 152 138 148 148 117 119 144 210 174 162 143 145 132 137 135 127 122 124 130 125 125 135 133 127 141 114 122 125 119 115 120 136 153 170 67 79 81 67 39 69 79 41 46 42 25 351 10 12 5 358 3 4 348 355 353 347 342 330 333 323 319 324 327 327
209 219 216 195 188 189 219 229 210 208 217 202 220 231 201 210 239 229 224 192 154 159 162 171 171 168 162 167 162 163 171 178 171 155 150 153 151 155 147 156 172 177 168 129 115 96 100 133 134 126 126 127 123 125 126 121 125 131 123 106 87 83 101 106 42 80 51 54 33 46 20 14 98 72 79 51 41 21 17 14 5 359 6 359 2 2 2 353 359 346 332 326 336 344 344 340 336
202 213 207 187 192 189 211 211 221 217 234 252 217 224 234 200 201 247 262 191 169 167 164 168 175 170 165 162 160 156 167 171 151 153 144 160 159 151 146 149 162 186 149 156 157 142 161 147 128 124 124 125 119 119 121 119 113 121 123 105 90 78 72 63 59 52 57 53 45 34 6 359 21 71 61 53 42 24 15 14 6 5 13 2 2 3 356 350 359 353 344 351 349 347 350 355 347
202 213 220 207 201 189 198 204 201 210 216 221 241 220 228 209 173 207 240 227 149 165 159 164 169 165 157 161 157 158 160 149 141 138 142 158 145 149 145 170 177 155 164 156 154 150 144 136 127 127 127 125 121 113 104 97 89 81 82 84 77 74 76 70 57 49 43 35 30 41 359 14 16 42 53 41 41 26 12 2 360 27 14 5 9 359 358 347 3 357 350 351 354 347 0 358 353
203 210 223 207 207 178 214 196 217 203 215 220 214 251 185 211 313 294 214 208 161 134 143 163 156 157 152 149 149 148 143 132 126 131 140 149 143 153 156 210 162 177 152 130 134 133 129 127 128 128 126 122 112 106 102 97 89 79 72 75 75 73 72 70 66 61 53 40 9 24 49 35 25 32 43 33 19 37 330 346 24 23 17 38 19 13 7 0 11 352 356 359 346 11 2 360 353
187 209 206 201 200 198 192 199 214 39 282 225 196 222 201 57 161 354 253 155 114 144 143 161 160 160 141 119 106 113 112 113 132 148 151 170 169 173 156 188 160 149 139 139 140 134 130 126 128 130 124 118 114 109 106 101 96 89 79 71 73 73 72 71 69 66 57 48 11 61 60 47 34 26 41 73 316 301 15 20 23 3 30 37 19 26 355 359 358 339 8 351 12 18 7 359 346
180 214 196 198 226 241 204 208 157 246 216 218 204 204 202 163 185 205 110 127 142 164 141 158 148 144 138 117 117 125 132 143 152 157 167 174 170 169 146 143 139 131 141 141 139 124 119 120 125 120 120 118 114 108 104 103 104 98 91 83 81 83 84 92 108 135 146 149 105 53 64 71 72 64 64 33 3 28 15 42 360 41 45 40 7 30 15 12 353 8 14 8 26 13 357 346 356
212 206 166 193 185 226 211 213 199 189 214 213 220 212 216 198 170 175 162 172 168 155 168 140 155 140 123 113 120 130 140 141 155 170 167 172 168 130 100 113 110 155 136 136 136 129 122 122 120 118 115 115 114 112 112 109 102 101 102 102 103 111 116 124 130 109 87 88 80 76 74 99 101 75 59 42 44 38 31 48 27 27 30 20 29 37 27 3 360 13 16 18 13 3 356 355 9
226 198 186 212 229 216 215 201 224 196 209 221 217 211 216 207 187 172 171 176 158 168 171 166 153 158 134 133 138 145 158 159 159 154 158 145 72 120 149 143 151 156 141 140 140 132 128 123 120 116 116 113 112 111 110 105 105 112 123 133 137 131 126 122 110 104 114 120 123 126 123 81 66 71 51 57 34 41 25 36 44 34 38 35 35 43 30 18 23 24 16 9 11 6 2 360 357
206 211 195 193 236 213 239 188 216 193 209 206 230 217 210 211 215 185 184 167 169 178 177 169 169 131 144 143 142 150 152 157 155 146 151 121 145 175 155 146 151 145 128 159 138 133 126 124 121 119 114 110 104 104 106 105 110 109 106 96 89 88 89 97 95 88 88 75 62 75 82 86 70 44 67 57 44 36 36 31 39 35 34 32 32 34 34 20 26 20 21 21 12 3 5 5 354
205 215 195 198 202 206 199 218 197 216 204 200 205 239 211 72 313 228 190 166 173 176 175 177 178 149 143 146 148 147 148 157 154 148 145 150 141 189 149 150 146 139 143 137 129 128 129 126 122 118 120 118 115 111 118 120 113 112 104 85 82 82 76 77 87 96 98 93 88 84 82 86 80 57 49 52 58 37 36 55 45 39 40 40 32 30 23 14 20 19 22 24 5 3 8 8 11